Miscellaneous Local Product
Issued by NWS North Platte, NE

Home | Current Version | Previous Version | Text Only | Print | Product List | Glossary On
Versions: 1 2 3 4 5 6 7 8 9 10 11 12 13 14 15 16 17 18 19 20 21 22 23 24 25 26 27 28 29 30 31 32 33 34 35 36 37 38 39 40 41 42 43 44 45 46 47 48 49 50
498
AXUS43 KLBF 230810
MISLBF


WESTERN AND NORTH CENTRAL NEBRASKA HOURLY WEATHER ROUNDUP
NATIONAL WEATHER SERVICE NORTH PLATTE NE
300 AM CDT MON MAY 23 2016

NOTE: "FAIR" INDICATES FEW OR NO CLOUDS BELOW 12,000 FEET WITH NO
SIGNIFICANT WEATHER AND/OR OBSTRUCTIONS TO VISIBILITY.

NOTE: STATIONS NOT REPORTING VARIABLES SUCH AS SKY/WEATHER OR
PRESSURE ARE PROVIDED BY RAWS AND APRS NETWORKS AND ARE NOT UNDER
NATIONAL WEATHER SERVICE QUALITY CONTROL.

...OBSERVATIONS IN AND NEAR THE EASTERN PANHANDLE OF NEBRASKA...

CITY           SKY/WX    TMP DP  RH WIND       PRES   REMARKS
PINE RIDGE     CLOUDY    51  41  68 SW10      29.79F
CHADRON        PTCLDY    45  40  82 S3        29.82R
ALLIANCE       CLOUDY    50  44  80 SW6       29.84F
SIDNEY         CLOUDY    52  39  61 NW8       29.90R
CRESCENT LAKE    N/A     52  47  84 W3          N/A
BIG SPRINGS      N/A     58  46  64 CALM        N/A
$$

...OBSERVATIONS IN NORTHERN NEBRASKA AND FAR SOUTHERN SOUTH DAKOTA...

CITY           SKY/WX    TMP DP  RH WIND       PRES   REMARKS
WINNER         CLOUDY    58  52  80 W5        29.74R
VALENTINE      CLOUDY    54  49  83 S9        29.78F
THEDFORD       CLOUDY    54  51  89 CALM      29.83F
AINSWORTH      CLOUDY    55  52  89 CALM      29.82R
O`NEILL        RAIN      60  58  94 CALM      29.78R
ORD            LGT RAIN  59  57  93 NW14      29.77S
BROKEN BOW     CLOUDY    57  50  77 N16       29.79F
BUTTE            N/A     57  54  89 W7G16       N/A
CHAMBERS         N/A     59  58  97 CALM        N/A
EWING            N/A     60  58  94 CALM        N/A
$$

...OBSERVATIONS IN SOUTHWEST NEBRASKA AND FAR NORTHEAST COLORADO...

CITY           SKY/WX    TMP DP  RH WIND       PRES   REMARKS
WRAY           CLOUDY    57  43  58 CALM      29.88R
HOLYOKE        PTSUNNY   59  46  63 N3        29.87F
IMPERIAL       CLOUDY    55  51  86 N3        29.85F
OGALLALA       CLOUDY    57  45  62 CALM      29.85S
NORTH PLATTE   LGT RAIN  54  50  86 NW5       29.83R
MCCOOK         LGT RAIN  55  52  89 NE8       29.83F
LEXINGTON      TSTM      57  52  84 W16       29.85R
PAXTON           N/A     56  51  84 CALM        N/A
STAPLETON        N/A     52  48  87 CALM        N/A
GOTHENBURG       N/A     56  49  76 N3          N/A
CALLAWAY         N/A     54  50  87 N13         N/A
$$

...OBSERVATIONS IN CENTRAL LINCOLN COUNTY AREA...

CITY           SKY/WX    TMP DP  RH WIND       PRES   REMARKS
N.P. AIRPORT   LGT RAIN  54  50  86 NW5       29.83R
N.P. DOWNTOWN    N/A     54  50  87 CALM        N/A
N.P. HILLCREST   N/A     54  50  86 CALM        N/A
$$

...SOME OBSERVATIONS FROM AROUND THE REGION...

CITY           SKY/WX    TMP DP  RH WIND       PRES   REMARKS
DENVER         TSTM      48  43  82 SE10      29.92R
LARAMIE        CLEAR     33  28  81 E8        29.99R WCI  26
CHEYENNE       CLEAR     44  28  53 NW16      29.94R
SCOTTSBLUFF    CLOUDY    50  41  71 CALM      29.87R
RAPID CITY     PTCLDY    47  40  76 SE8       29.73R
BISMARCK       CLOUDY    57  54  89 E9        29.58F
PIERRE         CLOUDY    56  52  86 SE8       29.68F
SIOUX FALLS    TSTM      62  58  86 W9G16     29.79R FOG
OMAHA          CLOUDY    70  60  70 S15G28    29.81F
GRAND ISLAND   CLOUDY    70  64  81 S18G26    29.77R
KANSAS CITY    CLOUDY    66  55  67 S10       29.90F
WICHITA        CLOUDY    70  64  81 S24G32    29.78F
OKLAHOMA CITY  CLOUDY    68  67  96 SE7       29.89F
DALLAS         CLOUDY    75  67  76 SE10      29.87S
AMARILLO       CLOUDY    62  59  90 S18       29.85F
DODGE CITY     CLOUDY    64  60  87 S15G26    29.75F
HAYS           CLOUDY    66  61  82 S9        29.74S
GOODLAND       CLOUDY    60  50  69 N13G18    29.83F
$$




USA.gov is the U.S. government's official web portal to all federal, state and local government web resources and services.